Starlink 4464

operational
NORAD ID: 53669 Int'l Des: 2022-105 Owner: SPXS Country: US Constellation: starlink
LEOCIRCULARRETROGRADESSO

Über Starlink 4464

Beschreibung wird geladen...

Live-Position

3D-Globus wird geladen...

Nächste Überflüge

Höhenverlauf

Altitude vs Time

uPlot chart will show altitude changes over time

Zweizeiliger Elementsatz

1 53669U 22105X 25260.12293985 .00001528 00000-0 12347-3 0 9999
2 53669 97.6035 140.2810 0002012 92.8958 267.2497 15.01260385167195
Epoch: 17. Sept. 2025 • Age: 13 hours

Aktueller Status

Höhe 570.6 km
Geschwindigkeit 7.58 km/s
Subsatellitenpunkt 53.44°N, 89.69°E
Startdatum 31. Aug. 2022
Alter 3 years
Typ internet

Technische Details

Klassifizierung Payload
Masse 300.00 kg
Trockenmasse 290.00 kg
Gesamtmasse 300.00 kg
Länge 0.20 m
Durchmesser 2.80 m
Spannweite 9.00 m
Form Box + pan
Hersteller SPXS
Bus-Typ Starlink
Phasenstatus In Orbit
Besitzer/Staat SPXS/US

Große Konstellationen

Loading constellations...